FW7132 Weather Reports


Display with metric or nautical units.
time (UTC)temp
F
wind
direction
speed
MPH
gust
MPH
rain 1hr
in
rain 24hr
in
rain mn
in
humidity
%
barometer
mb
20260905030753 91 311 0.0 0.0 0.00 0.00 0.00 38 1011.7
20260905015750 94 293 1.0 2.0 0.00 0.00 0.00 32 1011.1
20260905015250 95 285 1.0 2.0 0.00 0.00 0.00 32 1010.9
20260905014750 95 280 0.0 1.0 0.00 0.00 0.00 32 1010.8
20260905014250 95 287 0.0 3.0 0.00 0.00 0.00 31 1010.7
20260905013750 96 287 1.0 3.0 0.00 0.00 0.00 31 1010.8
20260905012749 96 245 0.0 2.0 0.00 0.00 0.00 30 1010.7
20260905012249 97 233 0.0 4.0 0.00 0.00 0.00 30 1010.6
20260905011750 97 227 0.0 4.0 0.00 0.00 0.00 30 1010.6
20260905011249 97 289 0.0 1.0 0.00 0.00 0.00 30 1010.6
20260905010249 98 287 0.0 3.0 0.00 0.00 0.00 29 1010.7
20260905005749 98 282 1.0 6.0 0.00 0.00 0.00 29 1010.8
20260905005248 98 285 1.0 6.0 0.00 0.00 0.00 28 1010.8
20260905004748 99 188 1.0 5.0 0.00 0.00 0.00 28 1011.0
20260905003748 99 270 0.0 4.0 0.00 0.00 0.00 28 1011.0
20260905003248 99 354 0.0 4.0 0.00 0.00 0.00 29 1010.9
20260905002248 100 220 3.0 6.0 0.00 0.00 0.00 28 1011.0
20260905001748 100 199 2.0 4.0 0.00 0.00 0.00 29 1011.1
20260905001247 99 280 0.0 3.0 0.00 0.00 0.00 30 1011.0
20260905000748 99 279 1.0 5.0 0.00 0.00 0.00 30 1011.0
20260905000248 99 297 1.0 7.0 0.00 0.00 0.00 30 1011.1
20260904234747 100 266 1.0 4.0 0.00 0.00 0.00 29 1011.1
20260904234247 100 271 1.0 8.0 0.00 0.00 0.00 28 1011.1
20260904233746 100 242 1.0 8.0 0.00 0.00 0.00 29 1011.3
20260904233246 100 307 3.0 6.0 0.00 0.00 0.00 28 1011.1
20260904232746 100 235 2.0 6.0 0.00 0.00 0.00 28 1011.4
20260904231246 99 51 0.0 5.0 0.00 0.00 0.00 30 1011.5
20260904230745 99 56 1.0 8.0 0.00 0.00 0.00 29 1011.5
20260904222745 100 307 2.0 7.0 0.00 0.00 0.00 29 1011.9
20260904222244 100 200 0.0 8.0 0.00 0.00 0.00 28 1012.0
20260904221744 100 145 1.0 8.0 0.00 0.00 0.00 28 1012.0
20260904220744 99 303 1.0 7.0 0.00 0.00 0.00 28 1012.2
20260904220244 99 253 0.0 7.0 0.00 0.00 0.00 28 1012.3
20260904215743 100 200 4.0 7.0 0.00 0.00 0.00 28 1012.4
20260904215244 100 285 0.0 4.0 0.00 0.00 0.00 28 1012.5
20260904214743 100 231 1.0 8.0 0.00 0.00 0.00 28 1012.5
20260904214243 100 217 2.0 10.0 0.00 0.00 0.00 29 1012.5
20260904213743 99 300 2.0 10.0 0.00 0.00 0.00 29 1012.4
20260904213243 99 131 7.0 10.0 0.00 0.00 0.00 29 1012.5
20260904212743 99 152 8.0 10.0 0.00 0.00 0.00 28 1012.6
20260904212243 99 281 1.0 5.0 0.00 0.00 0.00 30 1012.7
20260904211742 99 153 0.0 9.0 0.00 0.00 0.00 29 1012.7
20260904211243 99 176 4.0 9.0 0.00 0.00 0.00 30 1012.7
20260904210242 99 159 9.0 9.0 0.00 0.00 0.00 31 1012.8
20260904205742 99 75 2.0 9.0 0.00 0.00 0.00 31 1012.7
20260904204742 99 260 3.0 7.0 0.00 0.00 0.00 31 1012.9
20260904204242 99 167 3.0 10.0 0.00 0.00 0.00 30 1012.9
20260904203241 98 324 2.0 6.0 0.00 0.00 0.00 33 1013.0
20260904202741 99 296 4.0 11.0 0.00 0.00 0.00 33 1013.3
20260904201741 99 237 3.0 7.0 0.00 0.00 0.00 32 1013.3
20260904201240 98 161 1.0 6.0 0.00 0.00 0.00 34 1013.3
20260904200740 99 217 3.0 8.0 0.00 0.00 0.00 33 1013.5
20260904195740 97 137 6.0 8.0 0.00 0.00 0.00 35 1013.5
20260904195240 97 137 1.0 8.0 0.00 0.00 0.00 35 1013.7
20260904194740 96 145 3.0 9.0 0.00 0.00 0.00 36 1013.7
20260904194240 97 235 3.0 9.0 0.00 0.00 0.00 36 1014.0
20260904193740 96 148 3.0 9.0 0.00 0.00 0.00 38 1014.0
20260904193240 95 35 2.0 5.0 0.00 0.00 0.00 39 1013.9
20260904192740 96 218 3.0 6.0 0.00 0.00 0.00 38 1014.1
20260904192239 97 299 3.0 8.0 0.00 0.00 0.00 36 1014.2
20260904191739 98 221 1.0 10.0 0.00 0.00 0.00 35 1014.3
20260904190738 97 208 2.0 8.0 0.00 0.00 0.00 36 1014.2
20260904190239 97 162 5.0 8.0 0.00 0.00 0.00 35 1014.5
20260904183237 96 244 8.0 12.0 0.00 0.00 0.00 37 1014.8
20260904182737 96 175 3.0 8.0 0.00 0.00 0.00 39 1014.9
20260904182237 95 124 3.0 9.0 0.00 0.00 0.00 41 1015.0
20260904181237 95 186 3.0 12.0 0.00 0.00 0.00 41 1015.0
20260904180737 95 136 7.0 12.0 0.00 0.00 0.00 41 1015.1
20260904180237 95 101 3.0 7.0 0.00 0.00 0.00 42 1015.1
20260904175737 95 136 4.0 9.0 0.00 0.00 0.00 41 1015.2
20260904175237 94 109 3.0 9.0 0.00 0.00 0.00 41 1015.3
20260904174736 94 220 5.0 9.0 0.00 0.00 0.00 43 1015.2
20260904173736 94 182 9.0 11.0 0.00 0.00 0.00 42 1015.3
20260904173236 93 183 3.0 8.0 0.00 0.00 0.00 43 1015.4
20260904172736 92 131 0.0 10.0 0.00 0.00 0.00 46 1015.2
20260904172236 92 110 8.0 12.0 0.00 0.00 0.00 46 1015.3
20260904171735 92 198 4.0 12.0 0.00 0.00 0.00 47 1015.3
20260904171235 92 123 5.0 8.0 0.00 0.00 0.00 46 1015.2
20260904170735 92 115 3.0 12.0 0.00 0.00 0.00 46 1015.4
20260904170235 92 140 3.0 12.0 0.00 0.00 0.00 47 1015.3
20260904165735 91 165 7.0 9.0 0.00 0.00 0.00 47 1015.3
20260904165235 91 179 4.0 17.0 0.00 0.00 0.00 47 1015.3
20260904164734 91 186 3.0 17.0 0.00 0.00 0.00 47 1015.2
20260904163735 91 174 5.0 8.0 0.00 0.00 0.00 49 1015.1
20260904163234 91 105 5.0 9.0 0.00 0.00 0.00 48 1015.1
20260904162734 91 109 4.0 9.0 0.00 0.00 0.00 49 1015.0
20260904161734 91 142 4.0 11.0 0.00 0.00 0.00 50 1015.0
20260904161234 90 108 3.0 8.0 0.00 0.00 0.00 51 1015.0
20260904160734 90 115 2.0 8.0 0.00 0.00 0.00 52 1015.1
20260904160233 89 180 5.0 9.0 0.00 0.00 0.00 52 1014.9
20260904155733 89 141 6.0 11.0 0.00 0.00 0.00 52 1014.9
20260904155233 90 131 7.0 11.0 0.00 0.00 0.00 52 1015.0
20260904154733 89 127 9.0 11.0 0.00 0.00 0.00 52 1015.0
20260904154233 89 169 5.0 9.0 0.00 0.00 0.00 52 1014.9
20260904153732 89 153 3.0 9.0 0.00 0.00 0.00 52 1014.9
20260904153233 89 128 2.0 7.0 0.00 0.00 0.00 53 1014.9
20260904152733 89 146 1.0 11.0 0.00 0.00 0.00 53 1014.8
20260904152232 89 192 4.0 11.0 0.00 0.00 0.00 53 1014.9
20260904151232 88 113 2.0 8.0 0.00 0.00 0.00 55 1014.9
20260904150732 88 116 4.0 8.0 0.00 0.00 0.00 55 1014.9
20260904150231 87 191 3.0 8.0 0.00 0.00 0.00 55 1014.8
20260904143731 85 112 6.0 10.0 0.00 0.00 0.00 58 1014.6
20260904142731 85 113 6.0 6.0 0.00 0.00 0.00 58 1014.6
20260904141230 84 140 4.0 6.0 0.00 0.00 0.00 61 1014.3
20260904140730 83 117 4.0 5.0 0.00 0.00 0.00 61 1014.3
20260904140230 83 118 2.0 5.0 0.00 0.00 0.00 63 1014.2
20260904135730 82 86 2.0 5.0 0.00 0.00 0.00 63 1014.0
20260904135229 82 122 1.0 6.0 0.00 0.00 0.00 63 1014.1
20260904134730 82 108 2.0 6.0 0.00 0.00 0.00 63 1014.0
20260904134229 82 120 1.0 6.0 0.00 0.00 0.00 62 1014.0
20260904133729 82 112 4.0 6.0 0.00 0.00 0.00 62 1013.9
20260904133229 82 108 3.0 6.0 0.00 0.00 0.00 62 1013.7
20260904132729 82 139 1.0 6.0 0.00 0.00 0.00 62 1013.7
20260904132229 82 124 6.0 6.0 0.00 0.00 0.00 62 1013.6
20260904131728 82 113 2.0 6.0 0.00 0.00 0.00 62 1013.5
20260904131228 82 124 3.0 6.0 0.00 0.00 0.00 62 1013.4
20260904125758 83 117 3.0 6.0 0.00 0.00 0.00 61 1013.2
20260904125228 83 108 4.0 6.0 0.00 0.00 0.00 61 1013.5
20260904124728 83 107 5.0 5.0 0.00 0.00 0.00 61 1013.5
20260904124227 83 144 2.0 7.0 0.00 0.00 0.00 61 1013.4
20260904123227 83 96 6.0 6.0 0.00 0.00 0.00 61 1013.2
20260904122727 83 138 3.0 5.0 0.00 0.00 0.00 61 1013.3
20260904122227 83 146 2.0 7.0 0.00 0.00 0.00 61 1013.3
20260904121727 83 113 3.0 7.0 0.00 0.00 0.00 61 1013.3
20260904121227 83 120 2.0 6.0 0.00 0.00 0.00 61 1013.1
20260904120727 83 143 3.0 5.0 0.00 0.00 0.00 61 1013.2
20260904120226 83 101 3.0 5.0 0.00 0.00 0.00 60 1013.1
20260904115726 83 103 3.0 6.0 0.00 0.00 0.00 60 1013.2
20260904115226 83 101 2.0 6.0 0.00 0.00 0.00 60 1013.2
20260904114726 83 110 3.0 6.0 0.00 0.00 0.00 61 1013.2
20260904113726 83 113 3.0 6.0 0.00 0.00 0.00 61 1013.1
20260904113226 83 114 2.0 5.0 0.00 0.00 0.00 60 1013.2
20260904112725 83 139 4.0 5.0 0.00 0.00 0.00 60 1013.1
20260904111225 83 120 3.0 5.0 0.00 0.00 0.00 60 1013.2
20260904110225 84 89 2.0 3.0 0.00 0.00 0.00 59 1013.2
20260904105725 84 119 1.0 4.0 0.00 0.00 0.00 59 1013.2
20260904105224 84 122 2.0 4.0 0.00 0.00 0.00 58 1013.0
20260904104724 84 136 1.0 5.0 0.00 0.00 0.00 59 1013.0
20260904104224 84 106 2.0 6.0 0.00 0.00 0.00 59 1013.0
20260904103724 84 115 3.0 6.0 0.00 0.00 0.00 59 1012.8
20260904103224 84 112 2.0 5.0 0.00 0.00 0.00 58 1012.9
20260904102223 84 110 3.0 6.0 0.00 0.00 0.00 59 1012.8
20260904101724 84 113 1.0 5.0 0.00 0.00 0.00 59 1012.8
20260904101223 84 103 2.0 6.0 0.00 0.00 0.00 59 1012.8
20260904100723 84 110 2.0 6.0 0.00 0.00 0.00 58 1012.8
20260904090251 85 111 4.0 7.0 0.00 0.00 0.00 56 1012.8
20260904085751 85 129 3.0 7.0 0.00 0.00 0.00 56 1012.9
20260904085251 85 113 4.0 7.0 0.00 0.00 0.00 57 1012.8
20260904084751 85 86 2.0 7.0 0.00 0.00 0.00 56 1012.7
20260904084251 85 120 1.0 7.0 0.00 0.00 0.00 57 1012.8
20260904083250 85 130 4.0 7.0 0.00 0.00 0.00 56 1012.8
20260904081750 85 187 2.0 9.0 0.00 0.00 0.00 56 1013.0
20260904081250 86 121 4.0 9.0 0.00 0.00 0.00 55 1013.0
20260904080750 86 124 4.0 8.0 0.00 0.00 0.00 55 1013.1
20260904075750 86 172 1.0 6.0 0.00 0.00 0.00 55 1013.1
20260904075249 86 127 3.0 6.0 0.00 0.00 0.00 55 1013.0
20260904074749 86 112 6.0 6.0 0.00 0.00 0.00 54 1013.0
20260904073749 86 190 2.0 7.0 0.00 0.00 0.00 54 1013.0
20260904073249 86 188 1.0 8.0 0.00 0.00 0.00 54 1013.0
20260904072748 86 139 3.0 8.0 0.00 0.00 0.00 53 1013.0
20260904072248 87 120 3.0 6.0 0.00 0.00 0.00 53 1013.1
20260904071748 87 174 3.0 6.0 0.00 0.00 0.00 53 1013.1
20260904070748 87 148 4.0 10.0 0.00 0.00 0.00 52 1013.1
20260904070248 87 133 3.0 10.0 0.00 0.00 0.00 52 1013.0
20260904065748 87 72 4.0 8.0 0.00 0.00 0.00 52 1013.0
20260904065247 87 155 2.0 8.0 0.00 0.00 0.00 51 1012.8
20260904064748 87 102 2.0 11.0 0.00 0.00 0.00 51 1012.7
20260904064247 87 112 3.0 11.0 0.00 0.00 0.00 51 1012.7
20260904063747 88 115 7.0 10.0 0.00 0.00 0.00 51 1012.6
20260904063247 88 140 2.0 12.0 0.00 0.00 0.00 51 1012.6
20260904062747 88 117 5.0 12.0 0.00 0.00 0.00 50 1012.5
20260904062246 88 103 6.0 9.0 0.00 0.00 0.00 50 1012.4
20260904061246 88 211 3.0 13.0 0.00 0.00 0.00 50 1012.4
20260904053245 88 82 7.0 11.0 0.00 0.00 0.00 49 1012.0
20260904052245 88 114 4.0 9.0 0.00 0.00 0.00 48 1012.0
20260904051745 88 97 5.0 12.0 0.00 0.00 0.00 48 1011.8
20260904051245 88 139 5.0 12.0 0.00 0.00 0.00 48 1011.8
20260904050244 88 99 6.0 11.0 0.00 0.00 0.00 48 1011.8
20260904045744 88 109 2.0 9.0 0.00 0.00 0.00 48 1011.8
20260904045244 88 120 7.0 9.0 0.00 0.00 0.00 47 1011.7
20260904044244 88 124 3.0 7.0 0.00 0.00 0.00 47 1011.7
20260904042243 90 175 3.0 9.0 0.00 0.00 0.00 44 1011.6
20260904041743 90 110 2.0 4.0 0.00 0.00 0.00 43 1011.6
20260904041243 90 136 2.0 4.0 0.00 0.00 0.00 43 1011.5
20260904040743 90 134 2.0 3.0 0.00 0.00 0.00 43 1011.3
20260904040243 90 153 0.0 3.0 0.00 0.00 0.00 43 1011.2
20260904035743 90 124 1.0 3.0 0.00 0.00 0.00 43 1011.2
20260904035243 90 125 0.0 4.0 0.00 0.00 0.00 42 1010.9
20260904034742 90 103 1.0 4.0 0.00 0.00 0.00 42 1010.9
20260904034242 90 119 2.0 3.0 0.00 0.00 0.00 43 1010.8
20260904032241 90 147 1.0 2.0 0.00 0.00 0.00 42 1010.7
20260904031741 90 64 0.0 1.0 0.00 0.00 0.00 43 1010.7
20260904031241 90 86 0.0 1.0 0.00 0.00 0.00 43 1010.7